Flight Information

DEPARTURE
TUCSON, AZ
Elevation:
2643
Runways:
3/21 - 7000x150 - ASPH-G
11R/29L - 8408x75 - ASPH-G
11L/29R - 10996x150 - ASPH-G
Active PE Departure:
11L - 11R
Current PE ATIS:
S
Altimeter:
30.11
Remarks:
USE CAUTION TAXIWAY ALPHA PARALLEL TO RUNWAY 1 1 LEFT. V F R DEPARTURES CONTACT CLEARANCE DELIVERY, ADVISE ON COURSE HEADING, ALTITUDE, AND IF FLIGHT FOLLOWING IS REQUESTED. NOTICE TO AIRMEN RUNWAY 3 2 1 CLOSED.
ATIS:
123.8 520-741-1177
Clearance Delivery:
126.65
Ground:
124.4
Tower:
TUCSON TOWER 118.3
DESTINATION
,
Elevation:
TPA:
1000 (est.)


6457 NM79° True-12° Var66° HDG

Flight Plan:
(click to file on line)

1. Type
2. Aircraft Identification
3. Aircraft Type / Special Equipment
4. True Airspeed
kts
5. Departure Airport
(ICAO code)
6. Arriving Airport
(ICAO code)
7. Cruising Altitude
ft
8. Alternate Airport
(ICAO code)
9. Route of Flight
10. Remarks


00:00:00 Departure ATIS: Destination ATIS:

Clearance Limit:
Route:
Altitude: Expect in minutes
Frequency:
Transponder: (7500 Hijack / 7600 Lost Comms / 7700 Emergency)


KTUS 040029Z 02003KT 10SM BKN005 16/14 A3020 RMK AO2 RAB07E18 P0000 T01560144
Time: 2022-12-04T00:29:00Z
1670648782
Winds: 20 @ 3 kts
Visibility: 10.0 sm
Clouds (AGL): BKN 500
Temperature: 15.6 C
Dew Point: 14.4 C
Pressure: 30.200787 in Hgbr


Notes:

Data extracted from FAA Digital Chart Supplement. Effective: 0901Z Thursday, 27 JAN 2022 to 0900z Thursday, 24 MAR 2022
Current ATIS data is provided courtisy of PilotEdge.